| time (UTC) | temp F | wind direction | speed MPH | gust MPH | rain 1hr in | rain 24hr in | rain mn in | humidity % | barometer mb |
| 20260831145927 | 56 | 66 | 0.0 | 0.0 | 0.00 | 0.00 | 0.00 | 66 | 1018.7 |
| 20260831144715 | 55 | 68 | 0.0 | 0.0 | 0.00 | 0.00 | 0.00 | 70 | 1018.5 |
| 20260831143516 | 54 | 67 | 0.0 | 0.0 | 0.00 | 0.00 | 0.00 | 72 | 1018.4 |
| 20260831141012 | 52 | 76 | 0.0 | 0.0 | 0.00 | 0.00 | 0.00 | 75 | 1018.4 |
| 20260831135837 | 52 | 88 | 0.0 | 0.0 | 0.00 | 0.00 | 0.00 | 75 | 1018.3 |
| 20260831133352 | 50 | 84 | 0.0 | 0.0 | 0.00 | 0.00 | 0.00 | 75 | 1018.1 |
| 20260831132148 | 50 | 84 | 0.0 | 0.0 | 0.00 | 0.00 | 0.00 | 77 | 1018.2 |
| 20260831131011 | 50 | 86 | 0.0 | 0.0 | 0.00 | 0.00 | 0.00 | 79 | 1018.1 |
| 20260831125834 | 50 | 103 | 0.0 | 0.0 | 0.00 | 0.00 | 0.00 | 79 | 1018.0 |
| 20260831124559 | 50 | 107 | 0.0 | 0.0 | 0.00 | 0.00 | 0.00 | 79 | 1017.9 |
| 20260831123355 | 50 | 121 | 0.0 | 0.0 | 0.00 | 0.00 | 0.00 | 79 | 1017.9 |
| 20260831122148 | 50 | 121 | 0.0 | 0.0 | 0.00 | 0.00 | 0.00 | 79 | 1017.7 |
| 20260831120919 | 51 | 121 | 0.0 | 0.0 | 0.00 | 0.00 | 0.00 | 79 | 1017.8 |
| 20260831115731 | 51 | 121 | 0.0 | 0.0 | 0.00 | 0.00 | 0.00 | 79 | 1017.8 |
| 20260831114518 | 52 | 122 | 0.0 | 0.0 | 0.00 | 0.00 | 0.00 | 79 | 1017.8 |
| 20260831113333 | 52 | 141 | 0.0 | 0.0 | 0.00 | 0.00 | 0.00 | 79 | 1017.7 |
| 20260831105519 | 53 | 130 | 0.0 | 0.0 | 0.00 | 0.00 | 0.00 | 77 | 1017.6 |
| 20260831104255 | 54 | 148 | 0.0 | 0.0 | 0.00 | 0.00 | 0.00 | 77 | 1017.8 |
| 20260831103054 | 54 | 138 | 0.0 | 0.0 | 0.00 | 0.00 | 0.00 | 76 | 1017.6 |
| 20260831101844 | 54 | 148 | 0.0 | 5.0 | 0.00 | 0.00 | 0.00 | 76 | 1017.6 |
| 20260831094031 | 54 | 135 | 0.0 | 0.0 | 0.00 | 0.00 | 0.00 | 75 | 1017.8 |
| 20260831092857 | 54 | 134 | 0.0 | 0.0 | 0.00 | 0.00 | 0.00 | 74 | 1017.7 |
| 20260831084859 | 55 | 142 | 0.0 | 0.0 | 0.00 | 0.00 | 0.00 | 70 | 1017.8 |
| 20260831083619 | 55 | 142 | 0.0 | 0.0 | 0.00 | 0.00 | 0.00 | 69 | 1017.8 |
| 20260831082409 | 55 | 156 | 0.0 | 0.0 | 0.00 | 0.00 | 0.00 | 69 | 1017.9 |
| 20260831081241 | 55 | 144 | 0.0 | 0.0 | 0.00 | 0.00 | 0.00 | 68 | 1017.8 |
| 20260831080038 | 55 | 142 | 0.0 | 0.0 | 0.00 | 0.00 | 0.00 | 67 | 1017.7 |
| 20260831074810 | 56 | 144 | 0.0 | 6.0 | 0.00 | 0.00 | 0.00 | 66 | 1017.7 |
| 20260831073532 | 56 | 164 | 0.0 | 3.0 | 0.00 | 0.00 | 0.00 | 65 | 1017.6 |
| 20260831072320 | 56 | 138 | 0.0 | 0.0 | 0.00 | 0.00 | 0.00 | 66 | 1017.7 |
| 20260831065742 | 57 | 140 | 0.0 | 0.0 | 0.00 | 0.00 | 0.00 | 65 | 1017.7 |
| 20260831064518 | 57 | 142 | 0.0 | 0.0 | 0.00 | 0.00 | 0.00 | 64 | 1017.7 |
| 20260831063303 | 57 | 145 | 0.0 | 0.0 | 0.00 | 0.00 | 0.00 | 63 | 1017.8 |
| 20260831060726 | 58 | 134 | 0.0 | 0.0 | 0.00 | 0.00 | 0.00 | 62 | 1017.8 |
| 20260831055507 | 58 | 140 | 0.0 | 0.0 | 0.00 | 0.00 | 0.00 | 61 | 1017.8 |
| 20260831054331 | 58 | 140 | 0.0 | 0.0 | 0.00 | 0.00 | 0.00 | 60 | 1017.7 |
| 20260831051807 | 59 | 118 | 0.0 | 0.0 | 0.00 | 0.00 | 0.00 | 55 | 1017.8 |
| 20260831050546 | 59 | 118 | 0.0 | 0.0 | 0.00 | 0.00 | 0.00 | 54 | 1017.8 |
| 20260831045318 | 60 | 118 | 0.0 | 0.0 | 0.00 | 0.00 | 0.00 | 52 | 1017.7 |
| 20260831044142 | 60 | 118 | 0.0 | 0.0 | 0.00 | 0.00 | 0.00 | 51 | 1017.8 |
| 20260831042947 | 61 | 118 | 0.0 | 0.0 | 0.00 | 0.00 | 0.00 | 49 | 1017.8 |
| 20260831041757 | 62 | 196 | 0.0 | 0.0 | 0.00 | 0.00 | 0.00 | 45 | 1017.9 |
| 20260831040617 | 63 | 196 | 0.0 | 0.0 | 0.00 | 0.00 | 0.00 | 44 | 1017.8 |
| 20260831035401 | 63 | 196 | 0.0 | 0.0 | 0.00 | 0.00 | 0.00 | 44 | 1017.9 |
| 20260831032751 | 64 | 196 | 0.0 | 0.0 | 0.00 | 0.00 | 0.00 | 42 | 1017.7 |
| 20260831031618 | 64 | 225 | 0.0 | 0.0 | 0.00 | 0.00 | 0.00 | 41 | 1017.7 |
| 20260831030340 | 65 | 225 | 0.0 | 0.0 | 0.00 | 0.00 | 0.00 | 41 | 1017.6 |
| 20260831025158 | 65 | 225 | 0.0 | 0.0 | 0.00 | 0.00 | 0.00 | 40 | 1017.5 |
| 20260831021401 | 67 | 226 | 0.0 | 3.0 | 0.00 | 0.00 | 0.00 | 36 | 1017.3 |
| 20260831013449 | 68 | 268 | 0.0 | 0.0 | 0.00 | 0.00 | 0.00 | 35 | 1017.4 |
| 20260831012308 | 69 | 265 | 0.0 | 0.0 | 0.00 | 0.00 | 0.00 | 35 | 1017.5 |
| 20260831011137 | 69 | 250 | 0.0 | 0.0 | 0.00 | 0.00 | 0.00 | 34 | 1017.5 |
| 20260831005921 | 69 | 260 | 0.0 | 8.0 | 0.00 | 0.00 | 0.00 | 34 | 1017.6 |
| 20260831004749 | 69 | 268 | 0.0 | 0.0 | 0.00 | 0.00 | 0.00 | 35 | 1017.5 |
| 20260831003600 | 69 | 252 | 0.0 | 10.0 | 0.00 | 0.00 | 0.00 | 35 | 1017.5 |
| 20260831002423 | 69 | 213 | 0.0 | 0.0 | 0.00 | 0.00 | 0.00 | 35 | 1017.4 |
| 20260831001205 | 69 | 262 | 0.0 | 8.0 | 0.00 | 0.00 | 0.00 | 34 | 1017.5 |
| 20260831000025 | 69 | 308 | 0.0 | 0.0 | 0.00 | 0.00 | 0.00 | 36 | 1017.5 |
| 20260830234826 | 69 | 276 | 0.0 | 0.0 | 0.00 | 0.00 | 0.00 | 36 | 1017.6 |
| 20260830233554 | 69 | 238 | 1.0 | 12.0 | 0.00 | 0.00 | 0.00 | 36 | 1017.7 |
| 20260830232331 | 69 | 252 | 0.0 | 10.0 | 0.00 | 0.00 | 0.00 | 35 | 1017.7 |
| 20260830231139 | 69 | 207 | 2.0 | 12.0 | 0.00 | 0.00 | 0.00 | 35 | 1017.8 |
| 20260830225948 | 69 | 267 | 2.0 | 10.0 | 0.00 | 0.00 | 0.00 | 35 | 1017.9 |
| 20260830224738 | 69 | 298 | 1.0 | 12.0 | 0.00 | 0.00 | 0.00 | 38 | 1018.0 |
| 20260830223605 | 68 | 275 | 2.0 | 13.0 | 0.00 | 0.00 | 0.00 | 37 | 1018.0 |
| 20260830222428 | 68 | 240 | 1.0 | 11.0 | 0.00 | 0.00 | 0.00 | 37 | 1018.2 |
| 20260830221221 | 68 | 279 | 1.0 | 15.0 | 0.00 | 0.00 | 0.00 | 38 | 1018.3 |
| 20260830220045 | 67 | 292 | 4.0 | 14.0 | 0.00 | 0.00 | 0.00 | 38 | 1018.4 |
| 20260830214912 | 67 | 234 | 1.0 | 0.0 | 0.00 | 0.00 | 0.00 | 40 | 1018.5 |
| 20260830213731 | 67 | 238 | 0.0 | 3.0 | 0.00 | 0.00 | 0.00 | 40 | 1018.5 |
| 20260830212455 | 66 | 227 | 2.0 | 7.0 | 0.00 | 0.00 | 0.00 | 41 | 1018.6 |
| 20260830211217 | 67 | 271 | 1.0 | 11.0 | 0.00 | 0.00 | 0.00 | 42 | 1018.7 |
| 20260830210046 | 66 | 286 | 0.0 | 0.0 | 0.00 | 0.00 | 0.00 | 43 | 1018.7 |
| 20260830204906 | 66 | 239 | 2.0 | 12.0 | 0.00 | 0.00 | 0.00 | 41 | 1018.8 |
| 20260830203721 | 66 | 230 | 1.0 | 0.0 | 0.00 | 0.00 | 0.00 | 42 | 1018.8 |
| 20260830202538 | 65 | 237 | 4.0 | 16.0 | 0.00 | 0.00 | 0.00 | 42 | 1018.6 |
| 20260830201303 | 65 | 219 | 3.0 | 14.0 | 0.00 | 0.00 | 0.00 | 44 | 1018.7 |
| 20260830200050 | 64 | 257 | 4.0 | 16.0 | 0.00 | 0.00 | 0.00 | 45 | 1018.8 |
| 20260830194919 | 63 | 277 | 5.0 | 16.0 | 0.00 | 0.00 | 0.00 | 47 | 1018.8 |
| 20260830193708 | 63 | 289 | 0.0 | 4.0 | 0.00 | 0.00 | 0.00 | 45 | 1018.9 |
| 20260830192431 | 63 | 249 | 4.0 | 19.0 | 0.00 | 0.00 | 0.00 | 45 | 1018.8 |
| 20260830191255 | 63 | 240 | 5.0 | 15.0 | 0.00 | 0.00 | 0.00 | 46 | 1019.1 |
| 20260830190053 | 62 | 245 | 2.0 | 13.0 | 0.00 | 0.00 | 0.00 | 48 | 1019.1 |
| 20260830184825 | 63 | 178 | 2.0 | 11.0 | 0.00 | 0.00 | 0.00 | 50 | 1019.2 |
| 20260830183610 | 62 | 269 | 0.0 | 0.0 | 0.00 | 0.00 | 0.00 | 49 | 1019.3 |
| 20260830180956 | 61 | 266 | 0.0 | 0.0 | 0.00 | 0.00 | 0.00 | 52 | 1019.6 |
| 20260830173019 | 58 | 300 | 0.0 | 0.0 | 0.00 | 0.00 | 0.00 | 58 | 1019.7 |
| 20260830170521 | 55 | 302 | 0.0 | 0.0 | 0.00 | 0.00 | 0.00 | 62 | 1019.8 |
| 20260830165335 | 55 | 301 | 0.0 | 0.0 | 0.00 | 0.00 | 0.00 | 63 | 1019.8 |
| 20260830164126 | 55 | 301 | 0.0 | 0.0 | 0.00 | 0.00 | 0.00 | 63 | 1019.8 |
| 20260830162901 | 54 | 180 | 0.0 | 0.0 | 0.00 | 0.00 | 0.00 | 64 | 1019.8 |
| 20260830161715 | 54 | 310 | 0.0 | 0.0 | 0.00 | 0.00 | 0.00 | 65 | 1019.6 |
| 20260830160541 | 53 | 314 | 0.0 | 0.0 | 0.00 | 0.00 | 0.00 | 66 | 1019.5 |
| 20260830155356 | 52 | 5 | 0.0 | 0.0 | 0.00 | 0.00 | 0.00 | 68 | 1019.4 |
| 20260830154148 | 52 | 241 | 0.0 | 0.0 | 0.00 | 0.00 | 0.00 | 67 | 1019.2 |
| 20260830152933 | 52 | 167 | 0.0 | 0.0 | 0.00 | 0.00 | 0.00 | 67 | 1019.2 |
| 20260830151658 | 52 | 174 | 0.0 | 0.0 | 0.00 | 0.00 | 0.00 | 66 | 1019.0 |